�������l�o���
Date,Time,MP-1(��Sv/h),MP-2(��Sv/h),MP-3(��Sv/h),MP-4(��Sv/h),MP-5(��Sv/h),MP-6(��Sv/h),MP-7(��Sv/h),����,����(m/s),���J
2022/06/22,00:00,0.154,0.143,0.229,0.222,0.218,0.122,0.078,�k�k��,2.2,��
2022/06/22,00:10,0.155,0.142,0.229,0.220,0.219,0.121,0.078,�k�k��,2.1,��
2022/06/22,00:20,0.154,0.144,0.230,0.222,0.217,0.122,0.079,�k�k��,2.0,��
2022/06/22,00:30,0.156,0.142,0.228,0.223,0.220,0.122,0.078,�k,2.4,��
2022/06/22,00:40,0.155,0.143,0.228,0.222,0.218,0.121,0.079,�k�k��,3.2,��
2022/06/22,00:50,0.156,0.143,0.229,0.222,0.220,0.122,0.078,�k,3.2,��
2022/06/22,01:00,0.154,0.143,0.229,0.222,0.217,0.121,0.079,�k,3.0,��
2022/06/22,01:10,0.154,0.142,0.228,0.222,0.220,0.121,0.078,�k�k��,3.0,��
2022/06/22,01:20,0.155,0.144,0.229,0.222,0.219,0.121,0.079,�k,2.2,��
2022/06/22,01:30,0.153,0.143,0.228,0.222,0.219,0.122,0.079,�k�k��,2.6,��
2022/06/22,01:40,0.155,0.144,0.229,0.222,0.219,0.121,0.079,�k�k��,4.1,��
2022/06/22,01:50,0.154,0.142,0.228,0.224,0.218,0.122,0.078,�k�k��,4.4,��
2022/06/22,02:00,0.156,0.144,0.230,0.222,0.220,0.121,0.078,�k�k��,4.3,��
2022/06/22,02:10,0.154,0.143,0.227,0.222,0.217,0.122,0.078,�k�k��,4.4,��
2022/06/22,02:20,0.155,0.143,0.230,0.219,0.221,0.122,0.078,�k�k��,4.8,��
2022/06/22,02:30,0.155,0.143,0.227,0.223,0.218,0.120,0.078,�k�k��,3.8,��
2022/06/22,02:40,0.155,0.143,0.228,0.221,0.220,0.121,0.078,�k�k��,3.3,��
2022/06/22,02:50,0.155,0.142,0.227,0.222,0.219,0.122,0.078,�k�k��,3.5,�L
2022/06/22,03:00,0.154,0.143,0.228,0.221,0.218,0.121,0.079,�k�k��,2.8,�L
2022/06/22,03:10,0.156,0.143,0.228,0.220,0.220,0.123,0.078,���k��,1.2,�L
2022/06/22,03:20,0.154,0.143,0.228,0.223,0.218,0.121,0.079,�k�k��,1.3,�L
2022/06/22,03:30,0.156,0.143,0.230,0.222,0.222,0.121,0.078,�k�k��,1.6,��
2022/06/22,03:40,0.155,0.143,0.228,0.224,0.220,0.121,0.079,�k�k��,1.7,��
2022/06/22,03:50,0.155,0.144,0.229,0.221,0.219,0.121,0.079,�k�k��,2.2,��
2022/06/22,04:00,0.155,0.142,0.228,0.223,0.219,0.122,0.079,�k�k��,2.8,��
2022/06/22,04:10,0.154,0.144,0.230,0.221,0.218,0.121,0.079,�k�k��,2.2,��
2022/06/22,04:20,0.154,0.142,0.228,0.222,0.220,0.122,0.078,�k�k��,2.1,��
2022/06/22,04:30,0.154,0.143,0.230,0.221,0.217,0.121,0.078,�k�k��,2.9,�L
2022/06/22,04:40,0.155,0.143,0.229,0.222,0.222,0.121,0.078,�k�k��,3.6,�L
2022/06/22,04:50,0.153,0.143,0.229,0.223,0.217,0.122,0.078,�k�k��,3.2,�L
2022/06/22,05:00,0.156,0.144,0.228,0.221,0.218,0.121,0.078,�k�k��,2.4,�L
2022/06/22,05:10,0.155,0.143,0.229,0.223,0.220,0.121,0.079,�k�k��,3.4,�L
2022/06/22,05:20,0.155,0.144,0.229,0.221,0.218,0.121,0.078,�k�k��,4.5,�L
2022/06/22,05:30,0.156,0.144,0.228,0.223,0.221,0.121,0.080,�k�k��,4.3,�L
2022/06/22,05:40,0.154,0.143,0.228,0.222,0.218,0.122,0.078,�k�k��,4.1,�L
2022/06/22,05:50,0.155,0.143,0.228,0.221,0.221,0.121,0.079,�k��,3.8,��
2022/06/22,06:00,0.154,0.143,0.229,0.221,0.219,0.122,0.079,�k�k��,4.1,��
2022/06/22,06:10,0.155,0.142,0.227,0.221,0.219,0.121,0.079,�k,4.3,��
2022/06/22,06:20,0.155,0.144,0.229,0.222,0.220,0.121,0.079,�k�k��,4.2,��
2022/06/22,06:30,0.156,0.142,0.229,0.220,0.217,0.122,0.078,�k�k��,3.5,��
2022/06/22,06:40,0.155,0.144,0.229,0.223,0.220,0.122,0.079,�k,3.5,��
2022/06/22,06:50,0.155,0.142,0.229,0.219,0.219,0.122,0.078,�k�k��,2.9,��
2022/06/22,07:00,0.155,0.143,0.228,0.222,0.219,0.121,0.079,�k�k��,3.2,��
2022/06/22,07:10,0.154,0.143,0.229,0.221,0.219,0.120,0.079,�k�k��,3.3,��
2022/06/22,07:20,0.155,0.141,0.227,0.220,0.217,0.122,0.077,�k�k��,2.6,�L
2022/06/22,07:30,0.154,0.143,0.229,0.223,0.221,0.121,0.078,�k,3.4,��
2022/06/22,07:40,0.154,0.142,0.226,0.219,0.218,0.121,0.077,�k�k��,2.8,��
2022/06/22,07:50,0.155,0.144,0.229,0.221,0.218,0.122,0.078,�k�k��,2.3,��
2022/06/22,08:00,0.154,0.143,0.226,0.221,0.219,0.121,0.078,�k�k��,3.4,��
2022/06/22,08:10,0.155,0.142,0.227,0.220,0.217,0.122,0.078,�k�k��,4.0,��
2022/06/22,08:20,0.153,0.143,0.228,0.222,0.219,0.122,0.078,�k,3.0,�L
2022/06/22,08:30,0.155,0.142,0.226,0.219,0.218,0.122,0.078,�k�k��,4.1,��
2022/06/22,08:40,0.154,0.142,0.228,0.220,0.218,0.122,0.077,�k�k��,3.5,�L
2022/06/22,08:50,0.154,0.143,0.228,0.222,0.221,0.121,0.078,�k�k��,4.5,�L
2022/06/22,09:00,0.155,0.142,0.227,0.220,0.217,0.121,0.077,�k�k��,4.5,�L
2022/06/22,09:10,0.153,0.143,0.230,0.222,0.219,0.122,0.077,�k�k��,4.1,�L
2022/06/22,09:20,0.155,0.142,0.227,0.220,0.220,0.120,0.078,�k�k��,4.6,�L
2022/06/22,09:30,0.155,0.143,0.229,0.220,0.217,0.121,0.077,�k�k��,5.3,�L
2022/06/22,09:40,0.154,0.143,0.228,0.221,0.219,0.122,0.078,�k�k��,4.3,�L
2022/06/22,09:50,0.155,0.143,0.228,0.220,0.218,0.121,0.079,�k�k��,5.0,�L
2022/06/22,10:00,0.154,0.144,0.229,0.222,0.217,0.123,0.078,�k�k��,5.0,�L
2022/06/22,10:10,0.155,0.144,0.229,0.222,0.221,0.123,0.080,�k�k��,5.7,�L
2022/06/22,10:20,0.154,0.146,0.230,0.222,0.218,0.122,0.080,�k�k��,5.1,�L
2022/06/22,10:30,0.155,0.144,0.230,0.223,0.222,0.123,0.079,�k�k��,4.7,�L
2022/06/22,10:40,0.156,0.145,0.230,0.221,0.219,0.123,0.079,�k�k��,5.1,�L
2022/06/22,10:50,0.155,0.144,0.229,0.223,0.217,0.123,0.080,�k�k��,4.8,�L
2022/06/22,11:00,0.157,0.145,0.229,0.222,0.220,0.123,0.079,�k�k��,4.5,�L
2022/06/22,11:10,0.154,0.145,0.230,0.221,0.217,0.122,0.079,�k��,4.1,�L
2022/06/22,11:20,0.155,0.145,0.228,0.223,0.216,0.122,0.079,�k��,4.0,�L
2022/06/22,11:30,0.155,0.144,0.230,0.219,0.220,0.122,0.078,�k�k��,4.2,��
2022/06/22,11:40,0.154,0.142,0.230,0.221,0.218,0.122,0.078,�k�k��,4.6,��
2022/06/22,11:50,0.155,0.142,0.227,0.222,0.216,0.122,0.079,�k�k��,3.9,��
2022/06/22,12:00,0.155,0.143,0.229,0.218,0.220,0.122,0.078,�k�k��,3.6,��
2022/06/22,12:10,0.153,0.143,0.228,0.221,0.219,0.121,0.079,�k�k��,3.1,��
2022/06/22,12:20,0.155,0.142,0.225,0.222,0.216,0.120,0.077,�k,3.2,��
2022/06/22,12:30,0.155,0.142,0.229,0.220,0.218,0.121,0.078,�k,3.5,��
2022/06/22,12:40,0.154,0.143,0.229,0.219,0.219,0.122,0.078,�k,4.4,��
2022/06/22,12:50,0.156,0.142,0.226,0.222,0.218,0.121,0.078,�k�k��,3.7,��
2022/06/22,13:00,0.154,0.143,0.228,0.220,0.216,0.120,0.078,�k,3.7,��
2022/06/22,13:10,0.154,0.141,0.229,0.219,0.219,0.122,0.078,�k,3.8,��
2022/06/22,13:20,0.155,0.143,0.226,0.222,0.218,0.121,0.078,�k,4.0,�L
2022/06/22,13:30,0.154,0.142,0.228,0.221,0.216,0.121,0.078,�k�k��,3.7,�L
2022/06/22,13:40,0.156,0.143,0.228,0.221,0.219,0.122,0.078,�k,3.6,�L
2022/06/22,13:50,0.153,0.143,0.228,0.223,0.219,0.122,0.078,�k,4.4,�L
2022/06/22,14:00,0.155,0.142,0.229,0.218,0.217,0.122,0.078,�k�k��,4.0,�L
2022/06/22,14:10,0.153,0.142,0.228,0.218,0.219,0.122,0.078,�k�k��,4.4,�L
2022/06/22,14:20,0.155,0.143,0.230,0.221,0.218,0.122,0.079,�k,4.5,�L
2022/06/22,14:30,0.155,0.145,0.228,0.220,0.219,0.122,0.078,�k�k��,4.7,�L
2022/06/22,14:40,0.154,0.143,0.229,0.223,0.220,0.122,0.079,�k,3.8,�L
2022/06/22,14:50,0.157,0.144,0.230,0.221,0.217,0.123,0.078,�k,3.8,�L
2022/06/22,15:00,0.154,0.142,0.228,0.222,0.220,0.122,0.079,�k,4.1,�L
2022/06/22,15:10,0.156,0.144,0.229,0.221,0.219,0.122,0.080,�k�k��,3.8,�L
2022/06/22,15:20,0.155,0.143,0.228,0.222,0.217,0.123,0.079,�k�k��,4.2,�L
2022/06/22,15:30,0.155,0.144,0.230,0.223,0.221,0.122,0.079,�k,4.3,�L
2022/06/22,15:40,0.155,0.143,0.228,0.222,0.219,0.123,0.079,�k�k��,3.7,�L
2022/06/22,15:50,0.154,0.144,0.229,0.223,0.221,0.123,0.080,�k�k��,4.0,�L
2022/06/22,16:00,0.155,0.144,0.230,0.221,0.219,0.123,0.079,�k�k��,4.1,�L
2022/06/22,16:10,0.154,0.144,0.229,0.221,0.218,0.122,0.080,�k�k��,4.0,�L
2022/06/22,16:20,0.155,0.144,0.228,0.221,0.220,0.122,0.080,�k�k��,4.0,�L
2022/06/22,16:30,0.154,0.143,0.227,0.221,0.218,0.122,0.080,�k�k��,4.1,�L
2022/06/22,16:40,0.155,0.144,0.229,0.222,0.218,0.123,0.079,�k�k��,3.5,�L
2022/06/22,16:50,0.156,0.143,0.227,0.219,0.219,0.121,0.079,�k�k��,3.5,�L
2022/06/22,17:00,0.155,0.144,0.228,0.221,0.217,0.123,0.079,�k�k��,3.2,�L
2022/06/22,17:10,0.156,0.143,0.228,0.221,0.219,0.121,0.078,�k�k��,3.4,�L
2022/06/22,17:20,0.154,0.143,0.229,0.220,0.217,0.121,0.079,�k�k��,2.9,�L
2022/06/22,17:30,0.155,0.142,0.229,0.222,0.218,0.122,0.078,�k�k��,2.8,�L
2022/06/22,17:40,0.153,0.143,0.228,0.218,0.217,0.121,0.078,�k�k��,2.5,�L
2022/06/22,17:50,0.155,0.142,0.229,0.220,0.217,0.122,0.078,�k�k��,1.9,�L
2022/06/22,18:00,0.154,0.142,0.227,0.220,0.219,0.122,0.078,�k��,3.0,�L
2022/06/22,18:10,0.153,0.141,0.229,0.220,0.216,0.122,0.079,�k�k��,2.9,�L
2022/06/22,18:20,0.154,0.142,0.226,0.221,0.219,0.121,0.078,�k�k��,2.5,�L
2022/06/22,18:30,0.153,0.142,0.228,0.219,0.218,0.121,0.078,�k�k��,2.7,�L
2022/06/22,18:40,0.155,0.143,0.227,0.220,0.217,0.121,0.078,�k�k��,2.6,�L
2022/06/22,18:50,0.153,0.143,0.227,0.218,0.219,0.121,0.078,�k�k��,2.6,�L
2022/06/22,19:00,0.154,0.143,0.227,0.222,0.216,0.120,0.078,�k�k��,2.4,�L
2022/06/22,19:10,0.153,0.142,0.227,0.219,0.219,0.121,0.077,�k�k��,2.1,��
2022/06/22,19:20,0.153,0.143,0.229,0.220,0.218,0.121,0.078,�k,2.2,��
2022/06/22,19:30,0.154,0.143,0.227,0.220,0.216,0.121,0.078,�k�k��,2.5,��
2022/06/22,19:40,0.154,0.141,0.228,0.219,0.218,0.121,0.077,�k�k��,2.2,��
2022/06/22,19:50,0.155,0.143,0.226,0.221,0.216,0.120,0.077,�k,1.7,��
2022/06/22,20:00,0.155,0.141,0.228,0.218,0.217,0.121,0.078,�k,1.7,��
2022/06/22,20:10,0.154,0.142,0.227,0.221,0.217,0.121,0.078,�k,1.7,��
2022/06/22,20:20,0.153,0.143,0.226,0.220,0.217,0.121,0.078,�k,1.8,��
2022/06/22,20:30,0.153,0.141,0.228,0.219,0.219,0.121,0.077,�k,2.0,��
2022/06/22,20:40,0.155,0.143,0.226,0.221,0.216,0.120,0.077,�k�k��,1.9,��
2022/06/22,20:50,0.153,0.141,0.227,0.217,0.219,0.121,0.078,�k�k��,1.6,��
2022/06/22,21:00,0.155,0.143,0.226,0.220,0.218,0.121,0.077,�k,2.1,��
2022/06/22,21:10,0.154,0.142,0.228,0.219,0.217,0.121,0.078,�k�k��,1.6,��
2022/06/22,21:20,0.154,0.142,0.227,0.220,0.218,0.121,0.077,�k�k��,1.7,��
2022/06/22,21:30,0.155,0.142,0.227,0.219,0.217,0.120,0.078,�k,2.1,��
2022/06/22,21:40,0.153,0.142,0.226,0.219,0.218,0.121,0.077,�k,2.5,��
2022/06/22,21:50,0.154,0.143,0.226,0.220,0.217,0.121,0.078,�k,2.3,��
2022/06/22,22:00,0.154,0.142,0.228,0.219,0.216,0.121,0.077,�k,2.0,��
2022/06/22,22:10,0.154,0.143,0.226,0.220,0.218,0.122,0.077,�k,1.6,��
2022/06/22,22:20,0.155,0.141,0.228,0.220,0.217,0.121,0.077,�k�k��,1.0,��
2022/06/22,22:30,0.154,0.143,0.228,0.219,0.219,0.121,0.077,�k,0.8,��
2022/06/22,22:40,0.156,0.141,0.227,0.221,0.218,0.121,0.078,�k,1.1,��
2022/06/22,22:50,0.154,0.143,0.227,0.219,0.217,0.120,0.077,�k,1.0,��
2022/06/22,23:00,0.154,0.142,0.226,0.220,0.218,0.122,0.078,�k,0.8,��
2022/06/22,23:10,0.154,0.142,0.229,0.217,0.216,0.120,0.077,�k,1.1,��
2022/06/22,23:20,0.154,0.143,0.225,0.221,0.218,0.119,0.077,�k,1.5,��
2022/06/22,23:30,0.155,0.141,0.228,0.219,0.218,0.121,0.077,�k�k��,1.5,�L
2022/06/22,23:40,0.153,0.143,0.226,0.219,0.217,0.120,0.078,�k,2.0,�L
2022/06/22,23:50,0.155,0.141,0.227,0.221,0.218,0.121,0.078,�k,2.7,�L
